DateTimeUTC,F1_A11,F1_S11,BsB_S11,BsG_S11,BsR_S11,BbsB_S11,BbsG_S11,BbsR_S11,BaB_A11,BaG_A11,BaR_A11,Tu_S11,T_S11,Uu_S11,U_S11,P_S11,T1_A11
2021-06-05T16:00:00Z,00000200,20000000,,,,,,,-000.00,-000.41,-000.33,19.7,26.0,09.5,06.5,0675.5,31.1
2021-06-05T16:01:00Z,00000200,20000000,,,,,,,0000.24,0000.23,0000.33,19.7,26.0,09.5,06.5,0675.5,31.1
2021-06-05T16:02:00Z,00000200,20000000,,,,,,,-000.17,0000.25,-000.19,19.7,26.0,09.5,06.5,0675.5,31.1
2021-06-05T16:03:00Z,00000200,60000000,,,,,,,0000.59,-000.00,0000.06,19.7,26.0,09.5,06.5,0675.5,31.1
2021-06-05T16:04:00Z,00000200,40000000,0000.60,0000.46,0000.27,-000.09,0000.13,0000.31,0000.37,0000.73,0000.17,19.8,25.8,09.5,06.5,0676.4,31.1
2021-06-05T16:05:00Z,00000200,00000000,0000.53,0000.36,0000.13,0000.12,-000.01,-000.05,0000.56,0000.44,0000.61,19.8,25.8,09.7,06.7,0676.5,31.1
2021-06-05T16:06:00Z,00000200,00000000,0000.81,0000.18,0000.11,-000.50,-000.05,-000.15,0000.33,0000.41,0000.52,19.8,25.8,09.8,06.8,0676.5,31.1
2021-06-05T16:07:00Z,00000200,00000000,0001.04,0000.29,-000.01,-000.29,0000.08,0000.03,0000.39,0000.02,0000.09,19.8,25.8,09.9,06.9,0676.5,31.1
2021-06-05T16:08:00Z,00000200,00000000,0000.31,0000.43,0000.41,-000.26,0000.13,0000.07,0000.02,0000.22,-000.07,19.8,25.8,09.7,06.8,0676.4,31.1
2021-06-05T16:09:00Z,00000200,00000000,0000.19,0000.43,-000.09,-000.11,0000.01,0000.08,0000.48,0000.12,0000.35,19.8,25.8,09.7,06.8,0676.5,31.1
2021-06-05T16:10:00Z,00000200,00000000,0000.82,0000.00,0000.44,0000.19,-000.16,0000.26,0000.32,0000.43,0000.28,19.8,25.8,09.6,06.7,0676.5,31.1
2021-06-05T16:11:00Z,00000200,00000000,-000.11,0000.08,0000.37,-000.21,-000.09,0000.26,0000.20,0000.37,0000.02,19.8,25.8,09.7,06.8,0676.5,31.2
2021-06-05T16:12:00Z,00000200,00000000,0000.75,0000.40,0000.24,-000.36,0000.31,-000.09,0000.53,0000.20,0000.39,19.8,25.8,09.8,06.8,0676.5,31.1
2021-06-05T16:13:00Z,00000200,00000000,0000.71,0000.19,0000.15,0000.02,0000.21,0000.05,-000.07,0000.18,0000.10,19.8,25.8,09.7,06.7,0676.5,31.1
2021-06-05T16:14:00Z,00000200,00000000,0000.16,0000.28,0000.10,-000.27,-000.07,0000.20,0000.32,0000.52,0000.43,19.8,25.7,09.6,06.7,0676.5,31.1
2021-06-05T16:15:00Z,00000200,00000000,-000.10,0000.59,0000.10,0000.26,0000.19,-000.02,0000.32,0000.39,-000.04,19.8,25.7,09.7,06.8,0676.5,31.1
2021-06-05T16:16:00Z,00000200,00000000,0000.74,0000.13,0000.14,-000.30,0000.33,0000.04,0000.67,0000.08,0000.62,19.8,25.7,09.9,06.9,0676.5,31.1
2021-06-05T16:17:00Z,00000200,00000000,0000.77,0000.19,0000.04,0000.00,0000.07,-000.00,-000.16,0000.22,-000.32,19.8,25.7,09.8,06.8,0676.5,31.1
2021-06-05T16:18:00Z,00000200,00000000,0000.19,0000.34,0000.34,-000.28,0000.27,0000.25,0000.42,0000.47,0000.47,19.8,25.7,09.8,06.8,0676.5,31.1
2021-06-05T16:19:00Z,00000200,00000000,0000.73,0000.50,0000.50,0000.23,0000.14,-000.19,0000.56,0000.01,0000.37,19.8,25.8,09.9,06.9,0676.5,31.1
2021-06-05T16:20:00Z,00000200,00000000,0001.13,0000.22,0000.50,0000.22,0000.08,0000.01,0000.17,-000.03,0000.04,19.8,25.7,09.8,06.8,0676.5,31.1
2021-06-05T16:21:00Z,00000200,00000000,0000.94,0000.45,0000.15,-000.05,0000.08,0000.11,0000.62,0000.81,0000.57,19.8,25.7,09.9,06.9,0676.5,31.1
2021-06-05T16:22:00Z,00000200,00000000,0000.47,0000.12,0000.40,-000.45,0000.27,-000.06,0000.35,0000.47,-000.10,19.8,25.7,09.9,06.9,0676.5,31.1
2021-06-05T16:23:00Z,00000200,00000000,0000.85,0000.33,0000.29,-000.72,0000.23,-000.18,0000.12,0000.26,0000.30,19.8,25.7,09.8,06.8,0676.5,31.1
2021-06-05T16:24:00Z,00000200,00000000,0000.69,0000.43,0000.36,-000.52,-000.01,0000.02,0000.06,0000.07,0000.05,19.8,25.7,09.8,06.8,0676.4,31.1
2021-06-05T16:25:00Z,00000200,00000000,0001.01,0000.28,0000.35,0000.14,0000.20,-000.21,0000.81,0000.26,0000.41,19.7,25.7,09.8,06.8,0676.5,31.1
2021-06-05T16:26:00Z,00000200,00000000,0000.84,0000.20,0000.43,-000.09,0000.09,-000.08,0000.13,0000.55,0000.36,19.7,25.7,09.8,06.8,0676.5,31.1
2021-06-05T16:27:00Z,00000200,00000000,0000.37,0000.31,0000.39,-000.62,0000.20,-000.17,-000.13,0000.18,0000.08,19.8,25.7,09.7,06.8,0676.4,31.1
2021-06-05T16:28:00Z,00000200,00000000,0000.72,0000.59,0000.46,-000.33,0000.17,0000.03,0000.55,0000.28,0000.22,19.8,25.7,09.8,06.8,0676.4,31.1
2021-06-05T16:29:00Z,00000200,00000000,-000.27,0000.09,0000.25,0000.20,-000.11,0000.18,0000.87,0000.39,0000.49,19.8,25.7,09.6,06.7,0676.4,31.1
2021-06-05T16:30:00Z,00000200,00000000,0000.68,0000.09,0000.39,-000.25,-000.11,0000.00,0000.14,0000.41,0000.08,19.8,25.7,09.6,06.7,0676.4,31.2
2021-06-05T16:31:00Z,00000200,00010000,0001.15,0000.31,0000.17,0000.52,0000.24,-000.12,0000.16,0000.24,0000.27,19.8,25.7,09.8,06.8,0676.4,31.1
2021-06-05T16:32:00Z,00000200,00000000,0001.17,0000.11,0000.42,0000.32,-000.02,0000.15,0000.75,0000.10,0000.03,19.7,25.7,09.8,06.8,0676.4,31.1
2021-06-05T16:33:00Z,00000200,00000000,0000.10,0000.50,0000.10,-000.33,0000.22,0000.31,0000.09,0000.15,0000.31,19.8,25.7,09.6,06.7,0676.4,31.1
2021-06-05T16:34:00Z,00000200,00000000,0000.31,0000.36,0000.44,-000.47,0000.05,0000.49,0000.17,0000.37,0000.09,19.7,25.7,09.7,06.7,0676.4,31.1
2021-06-05T16:35:00Z,00000200,00000000,0001.01,0000.48,0000.49,0000.02,-000.03,0000.16,0000.69,0000.79,0000.42,19.8,25.7,09.7,06.8,0676.5,31.1
2021-06-05T16:36:00Z,00000200,00000000,0000.44,0000.18,0000.25,-000.07,0000.17,0000.30,0000.00,-000.32,-000.18,19.8,25.7,09.8,06.9,0676.4,31.1
2021-06-05T16:37:00Z,00000200,00000000,0000.89,0000.39,0000.37,0000.51,0000.16,0000.21,0000.41,0000.51,0000.53,19.8,25.7,09.7,06.8,0676.4,31.2
2021-06-05T16:38:00Z,00000200,00000000,0001.13,0000.57,0000.29,-000.39,-000.13,0000.02,0000.12,0000.29,0000.04,19.8,25.7,09.5,06.6,0676.4,31.2
2021-06-05T16:39:00Z,00000200,00000000,0000.68,0000.68,0000.40,-000.01,0000.00,-000.10,0000.33,0000.19,0000.39,19.8,25.7,09.6,06.7,0676.4,31.1
2021-06-05T16:40:00Z,00000200,00000000,0000.81,0000.15,0000.42,0000.03,0000.10,-000.20,0000.41,0000.59,0000.53,19.8,25.7,09.5,06.6,0676.5,31.1
2021-06-05T16:41:00Z,00000200,00000000,0000.05,0000.26,0000.21,-000.10,-000.04,0000.09,0000.69,0000.49,0000.27,19.8,25.7,09.5,06.6,0676.5,31.1
2021-06-05T16:42:00Z,00000200,00000000,0000.46,0000.38,0000.07,-000.30,0000.24,-000.12,0000.25,-000.02,-000.20,19.8,25.7,09.5,06.6,0676.5,31.1
2021-06-05T16:43:00Z,00000200,00000000,0001.40,0000.51,0001.01,-000.23,0000.02,0000.18,0000.38,0000.42,0000.55,19.8,25.7,09.6,06.7,0676.5,31.1
2021-06-05T16:44:00Z,00000200,00000000,0000.59,0000.51,0000.32,0000.18,0000.15,0000.18,0000.09,0000.38,0000.04,19.8,25.7,09.6,06.6,0676.5,31.1
2021-06-05T16:45:00Z,00000200,00000000,0000.71,0000.41,0000.44,0000.29,0000.08,-000.15,0000.47,0000.01,0000.32,19.8,25.7,09.4,06.5,0676.5,31.1
2021-06-05T16:46:00Z,00000200,00000000,0000.64,0000.48,0000.55,0000.01,0000.00,0000.22,-000.27,0000.37,0000.06,19.8,25.7,09.3,06.5,0676.5,31.1
2021-06-05T16:47:00Z,00000200,00000000,0000.84,0000.48,0000.54,-000.01,0000.11,0000.08,0000.70,0000.27,0000.54,19.8,25.7,09.3,06.5,0676.5,31.1
2021-06-05T16:48:00Z,00000200,00000000,0000.94,0000.61,0000.41,0000.02,0000.15,-000.10,0000.32,0000.05,-000.47,19.8,25.7,09.3,06.5,0676.5,31.1
2021-06-05T16:49:00Z,00000200,00000000,0000.68,0000.21,0000.67,-000.27,0000.09,0000.17,0000.27,0000.57,0000.54,19.8,25.7,09.4,06.6,0676.5,31.1
2021-06-05T16:50:00Z,00000200,00000000,0000.34,0000.47,0000.32,0000.02,0000.17,0000.25,0000.45,-000.09,0000.27,19.8,25.7,09.4,06.6,0676.5,31.1
2021-06-05T16:51:00Z,00000200,00000000,0000.60,0000.46,0000.58,0000.03,0000.07,0000.31,0000.41,0000.38,0000.39,19.8,25.7,09.3,06.5,0676.5,31.1
2021-06-05T16:52:00Z,00000200,00000000,0000.77,0000.80,0000.07,-000.04,0000.24,-000.00,0000.34,0000.68,0000.08,19.8,25.7,09.4,06.6,0676.5,31.1
2021-06-05T16:53:00Z,00000200,00000000,0000.80,0000.54,0000.18,-000.81,0000.16,0000.19,0000.24,0000.26,0000.10,19.8,25.7,09.4,06.5,0676.5,31.1
2021-06-05T16:54:00Z,00000200,00000000,0001.13,0000.97,0000.39,0000.22,0000.06,0000.11,0000.35,0000.23,0000.40,19.8,25.7,09.2,06.4,0676.5,31.1
2021-06-05T16:55:00Z,00000200,00000000,0000.54,0000.76,0000.61,-000.24,0000.14,-000.08,0000.25,0000.26,0000.18,19.8,25.7,09.2,06.4,0676.4,31.1
2021-06-05T16:56:00Z,00000200,00000000,0001.03,0000.83,0000.29,0000.27,-000.07,-000.16,0000.35,0000.20,0000.31,19.8,25.7,09.2,06.4,0676.5,31.1
2021-06-05T16:57:00Z,00000200,40000000,,,,,,,0000.25,0000.60,0000.23,19.8,25.8,09.1,06.3,0676.5,31.1
2021-06-05T16:58:00Z,00000200,60000000,,,,,,,0000.11,-000.21,0000.22,19.6,25.8,09.2,06.3,0675.4,31.1
2021-06-05T16:59:00Z,00000200,20000000,,,,,,,-000.11,-000.43,-000.43,19.6,25.9,09.2,06.3,0675.4,31.1
